Location: Newark
(35.8967°N, 14.4625°E)
Time: 22:02:03
(UTC+00:00)

Envisat - Pass Details

Date: 28 October 2019
Orbit: 764 x 766 km, 98.1° (Epoch: 17 November)

Event Time Altitude Azimuth Distance (km) Brightness Sun altitude
Rises 17:29:05 0° 177° (S) 3,216 6.3 -16.3°
Reaches altitude 10° 17:31:26 10° 182° (S) 2,294 5.5 -16.8°
Maximum altitude 17:36:23 55° 260° (W) 918 3.7 -17.8°
Drops below altitude 10° 17:41:22 10° 338° (NNW) 2,308 5.7 -18.8°
Sets 17:43:44 0° 343° (NNW) 3,238 6.4 -19.3°
